Location: Unspecified
(41.5625°N, 0.0000°E)
Time: 07:55:39
(UTC+00:00)

ESTCUBE 1 - Visible Passes

Search period start: 04 April 2026 00:00
Search period end: 14 April 2026 00:00
Orbit: 621 x 630 km, 97.7° (Epoch: 29 March)

Date Brightness Start Highest point End Pass type
(mag) Time Alt. Az. Time Alt. Az. Time Alt. Az.
4 Apr ? 20:14:02 40° E 20:14:20 40° ENE 20:18:27 10° N visible
4 Apr ? 21:51:19 18° W 21:51:19 18° W 21:53:47 10° NW visible
5 Apr ? 20:33:08 65° E 20:33:15 65° ENE 20:37:36 10° N visible
5 Apr ? 22:10:24 11° W 22:10:24 11° W 22:11:16 10° WNW visible
6 Apr ? 19:15:30 10° ENE 19:16:38 11° ENE 19:17:46 10° NE visible
6 Apr ? 20:52:13 78° W 20:52:13 78° W 20:56:37 10° NNW visible
7 Apr ? 19:34:02 15° E 19:35:22 17° ENE 19:38:11 10° NNE visible
7 Apr ? 21:11:18 47° W 21:11:18 47° W 21:15:29 10° NNW visible
8 Apr ? 19:53:07 23° E 19:54:10 25° ENE 19:57:47 10° NNE visible
8 Apr ? 21:30:23 29° W 21:30:23 29° W 21:34:08 10° NW visible
9 Apr ? 20:12:12 36° E 20:13:00 39° ENE 20:17:06 10° N visible
9 Apr ? 21:49:28 19° W 21:49:28 19° W 21:52:30 10° NW visible
10 Apr ? 20:31:16 56° ESE 20:31:54 64° ENE 20:36:16 10° N visible
10 Apr ? 22:08:33 12° W 22:08:33 12° W 22:10:04 10° WNW visible
11 Apr ? 19:14:19 10° ENE 19:15:17 11° ENE 19:16:15 10° NE visible
11 Apr ? 20:50:21 68° SSW 20:50:51 79° WSW 20:55:15 10° NNW visible
12 Apr ? 19:32:09 13° E 19:34:01 16° ENE 19:36:45 10° NNE visible
12 Apr ? 21:09:25 46° WSW 21:09:51 48° W 21:14:06 10° NNW visible
13 Apr ? 19:51:13 20° E 19:52:47 25° ENE 19:56:21 10° NNE visible
13 Apr ? 21:28:29 29° WSW 21:28:52 30° W 21:32:45 10° NW visible
